Regional Weather Roundup
Issued by NWS

Home | Current Version | Previous Version | Text Only | Print | Product List | Glossary On
Versions: 1 2 3 4 5 6 7 8 9 10 11 12 13 14 15 16 17 18 19 20 21 22 23 24 25 26 27 28 29 30 31 32 33 34 35 36 37 38 39 40 41 42 43 44 45 46 47 48 49 50
000
ASUS44 KOUN 020010
RWROK

WEATHER ROUNDUP FOR OKLAHOMA
NATIONAL WEATHER SERVICE NORMAN OK
700 PM CDT SUN MAY 01 2016

NOTE: "FAIR" INDICATES FEW OR NO CLOUDS BELOW 12,000 FEET WITH NO
      SIGNIFICANT WEATHER AND/OR OBSTRUCTIONS TO VISIBILITY.

OKZ001>007-009>012-014-015-017-020100-
NORTHWEST OKLAHOMA AND THE PANHANDLE

CITY           SKY/WX    TMP DP  RH WIND       PRES   REMARKS
GAGE           CLOUDY    49  39  68 N15       30.16R
6HR MIN TEMP:  47; 6HR MAX TEMP:  56; 6HR PCP:  0.02;

GUYMON         LGT RAIN  44  39  82 N12       30.20R
$$

OKZ016-021>023-033>039-044-045-020100-
SOUTHWEST OKLAHOMA

CITY           SKY/WX    TMP DP  RH WIND       PRES   REMARKS
LAWTON/REGL    LGT RAIN  56  47  71 N20G28    30.07R
6HR MIN TEMP:  56; 6HR MAX TEMP:  67; 6HR PCP:  0.01;

LAWTON/FT SILL DRIZZLE   56  48  74 N15       30.08R
FREDERICK      LGT RAIN  56  49  77 N15       30.07R
CLINTON        CLOUDY    52  42  69 N16       30.13R
HOBART         CLOUDY    55  45  68 N16       30.12R
ALTUS AFB      CLOUDY    57  43  60 N10       30.12R
$$

OKZ018>020-024>031-020100-
CENTRAL OKLAHOMA

CITY           SKY/WX    TMP DP  RH WIND       PRES   REMARKS
OKLAHOMA CITY  CLOUDY    58  44  60 N20       30.08R
6HR MIN TEMP:  58; 6HR MAX TEMP:  65;

OKC/WILEY POST CLOUDY    57  45  64 N17       30.09S
OKC/TINKER AFB CLOUDY    58  45  61 N16       30.07R
STILLWATER     CLOUDY    57  46  66 N10       30.09R
GUTHRIE        CLOUDY    57  45  64 VRB6      30.11R
$$

OKZ008-013-054>072-020100-
NORTHEAST OKLAHOMA

CITY           SKY/WX    TMP DP  RH WIND       PRES   REMARKS
TULSA          MOSUNNY   64  48  56 N14       30.03R
6HR MIN TEMP:  61; 6HR MAX TEMP:  69;

TULSA/JONES    CLOUDY    65  46  50 N8        30.04R
PONCA CITY     CLOUDY    55  43  63 N10       30.10R
BARTLESVILLE   PTSUNNY   59  45  59 VRB3      30.09R
MUSKOGEE       SUNNY     66  46  48 N13       30.03F
$$

OKZ032-040>043-046>053-073>077-020100-
SOUTH CENTRAL/SOUTHEAST OKLAHOMA

CITY           SKY/WX    TMP DP  RH WIND       PRES   REMARKS
MCALESTER      MOSUNNY   67  47  48 N10       30.02R
$$




USA.gov is the U.S. government's official web portal to all federal, state and local government web resources and services.